User: anonymous   Login
Location: Unspecified
(0.0000°N, 0.0000°E)
Time: 10:39:43
(UTC+00:00)
Language:

Akebono - Orbit

View from above orbital plane
View from above orbital plane
View from above satellite
View from above satellite

Ground track
Ground track

The orbit data is extracted from the following two-line orbital elements,

1 19822U 89016A   18267.54115462 +.00015360 +61527-6 +28212-3 0  9998
2 19822 075.0277 109.2354 1833380 204.0871 146.2667 11.86023219963940
Epoch (UTC): 24 September 2018 12:59:15
Eccentricity: 0.1833380
inclination: 75.0277°
perigee height: 255 km
apogee height: 3233 km
right ascension of ascending node: 109.2354°
argument of perigee: 204.0871°
revolutions per day: 11.86023219
mean anomaly at epoch: 146.2667°
orbit number at epoch: 96394

The dashed part of the orbit path shows where the satellite is in the earth's shadow,  

DLR